ONEWEB-0206 (48227 NORAD) Tracking and Keplerian Element Data

This shows tracking and keplerian element data for the satellite.

Feedback or suggestion? Click here.




ElementValue
Catalog48227
NameONEWEB-0206
Epoch Orbit179
Epoch Day136.75001157
Epoch Year2021
RAAN305.7996
Inclination87.4047
Eccentricity0.0006725
Argument of Perigee183.7824
Mean Anonmoly99.386
Mean Motion15.22109516
Decay Rate-0.01421023
L11 48227U 21031T 21136.75001157 -.01421023 00000-0 -68616-1 0 9992
L22 48227 87.4047 305.7996 0006725 183.7824 99.3860 15.22109516 1791

Live tracking and technical data element details for ONEWEB-0206 (NORAD 48227). ONEWEB-0206 can be tracked NOW for your location showing map with azimuth and elevation plus other details from your city location.

Track the satellite on the map from your city or location and see movement details for azimuth, elevation, latitude, longitude, range, height, and movement on the map or in text.







IsCatalogInMostPopularTable: catalog: 48227, numindb: 4
Update: records affected: 1



GetName: 48227 ONEWEB-0206

Hit Count: updated at: Mon, 17 May 2021 15:28:01 GMT